UZB58 UZNU-UZTT

Flight info

Callsign UZB58
Flight time N/A
Altitude 33000
Route N0450F330 DIKNA Y720 LAPZE N193 DIBAD
Aircraft A320/M-VGDW/C

Departure

Time N/A
Airport UZNU

Arrival

Time 2026-04-25 15:05
Airport Tashkent International Airport (UZTT)
Time Latitude Longitude Altitude Speed Heading
2026-04-25 13:55 41.59422 60.63038 328 ft 0 kts 139°
2026-04-25 14:08 41.59419 60.63041 329 ft 1 kts 139°
2026-04-25 14:08 41.59376 60.63093 329 ft 34 kts 139°
2026-04-25 14:08 41.58980 60.63556 329 ft 113 kts 139°
2026-04-25 14:09 41.58203 60.64457 336 ft 174 kts 138°
2026-04-25 14:09 41.57196 60.65620 646 ft 198 kts 139°
2026-04-25 14:09 41.56187 60.66784 1493 ft 191 kts 139°
2026-04-25 14:09 41.55859 60.67163 1779 ft 189 kts 139°
2026-04-25 14:10 41.54687 60.69502 2859 ft 192 kts 85°
2026-04-25 14:10 41.55158 60.71128 3355 ft 191 kts 41°
2026-04-25 14:10 41.56131 60.72398 3815 ft 206 kts 44°
2026-04-25 14:10 41.56757 60.74245 4193 ft 236 kts 77°
2026-04-25 14:11 41.56885 60.76552 4574 ft 261 kts 86°
2026-04-25 14:11 41.56915 60.79114 5114 ft 279 kts 86°
2026-04-25 14:11 41.56991 60.81716 5854 ft 287 kts 85°
2026-04-25 14:11 41.57127 60.84426 6747 ft 291 kts 84°
2026-04-25 14:12 41.57301 60.87108 7607 ft 294 kts 83°
2026-04-25 14:12 41.57502 60.89846 8464 ft 298 kts 83°
2026-04-25 14:12 41.57718 60.92593 9307 ft 302 kts 83°
2026-04-25 14:12 41.57946 60.95415 10157 ft 306 kts 83°
2026-04-25 14:13 41.58178 60.98254 10880 ft 314 kts 84°
2026-04-25 14:13 41.58424 61.01255 11327 ft 332 kts 84°
2026-04-25 14:13 41.58680 61.04394 11727 ft 350 kts 84°
2026-04-25 14:13 41.58955 61.07774 12098 ft 369 kts 84°
2026-04-25 14:14 41.59242 61.11295 12422 ft 387 kts 84°
2026-04-25 14:14 41.59541 61.14966 12721 ft 404 kts 84°
2026-04-25 14:14 41.59848 61.18760 13002 ft 420 kts 84°
2026-04-25 14:14 41.60166 61.22693 13454 ft 429 kts 84°
2026-04-25 14:15 41.60494 61.26731 14102 ft 433 kts 83°
2026-04-25 14:15 41.60604 61.28091 14321 ft 435 kts 83°
2026-04-25 14:15 41.61155 61.34911 15340 ft 442 kts 83°
2026-04-25 14:15 41.61481 61.38979 15915 ft 446 kts 83°
2026-04-25 14:16 41.61817 61.43194 16500 ft 450 kts 83°
2026-04-25 14:16 41.62147 61.47364 17043 ft 454 kts 83°
2026-04-25 14:16 41.62484 61.51629 17580 ft 458 kts 83°
2026-04-25 14:16 41.62820 61.55902 17966 ft 465 kts 83°
2026-04-25 14:17 41.63169 61.60358 18275 ft 475 kts 83°
2026-04-25 14:17 41.63512 61.64754 18730 ft 479 kts 83°
2026-04-25 14:17 41.63858 61.69194 19218 ft 482 kts 84°
2026-04-25 14:17 41.64207 61.73696 19688 ft 485 kts 84°
2026-04-25 14:18 41.64518 61.78214 20134 ft 489 kts 85°
2026-04-25 14:18 41.64758 61.82740 20581 ft 492 kts 86°
2026-04-25 14:18 41.64984 61.87401 21023 ft 496 kts 86°
2026-04-25 14:18 41.65207 61.92009 21463 ft 499 kts 86°
2026-04-25 14:19 41.65435 61.96661 21875 ft 502 kts 86°
2026-04-25 14:19 41.65665 62.01334 22269 ft 505 kts 86°
2026-04-25 14:19 41.65900 62.06069 22652 ft 508 kts 85°
2026-04-25 14:19 41.66137 62.10843 23014 ft 511 kts 85°
2026-04-25 14:20 41.66376 62.15659 23378 ft 513 kts 85°
2026-04-25 14:20 41.66533 62.18856 23672 ft 513 kts 85°
2026-04-25 14:20 41.66848 62.25300 24354 ft 511 kts 85°
2026-04-25 14:20 41.67077 62.30038 24834 ft 510 kts 85°
2026-04-25 14:21 41.67308 62.34827 25288 ft 510 kts 85°
2026-04-25 14:21 41.67535 62.39591 25723 ft 510 kts 85°
2026-04-25 14:21 41.67762 62.44374 26164 ft 509 kts 85°
2026-04-25 14:21 41.67987 62.49179 26613 ft 508 kts 85°
2026-04-25 14:22 41.68209 62.54002 27046 ft 508 kts 85°
2026-04-25 14:22 41.68428 62.58746 27469 ft 507 kts 85°
2026-04-25 14:22 41.68644 62.63480 27879 ft 507 kts 85°
2026-04-25 14:22 41.68860 62.68247 28283 ft 507 kts 85°
2026-04-25 14:23 41.69073 62.73030 28705 ft 506 kts 86°
2026-04-25 14:23 41.69282 62.77766 29122 ft 505 kts 86°
2026-04-25 14:23 41.69493 62.82527 29516 ft 505 kts 86°
2026-04-25 14:23 41.69700 62.87216 29892 ft 504 kts 85°
2026-04-25 14:24 41.69907 62.91975 30301 ft 503 kts 86°
2026-04-25 14:24 41.70110 62.96712 30741 ft 501 kts 86°
2026-04-25 14:24 41.70309 63.01398 31174 ft 499 kts 86°
2026-04-25 14:24 41.70501 63.06047 31549 ft 499 kts 86°
2026-04-25 14:25 41.70692 63.10724 31861 ft 499 kts 87°
2026-04-25 14:25 41.70882 63.15432 32143 ft 500 kts 87°
2026-04-25 14:25 41.71070 63.20112 32394 ft 501 kts 87°
2026-04-25 14:26 41.71442 63.29447 32848 ft 503 kts 87°
2026-04-25 14:26 41.71811 63.38864 32914 ft 505 kts 87°
2026-04-25 14:27 41.72171 63.48208 32919 ft 505 kts 87°
2026-04-25 14:27 41.72527 63.57637 32921 ft 505 kts 87°
2026-04-25 14:28 41.72877 63.67118 32919 ft 505 kts 88°
2026-04-25 14:28 41.73216 63.76530 32921 ft 505 kts 88°
2026-04-25 14:29 41.73549 63.86002 32921 ft 505 kts 88°
2026-04-25 14:29 41.73874 63.95431 32921 ft 505 kts 88°
2026-04-25 14:30 41.74192 64.04893 32921 ft 505 kts 88°
2026-04-25 14:30 41.74656 64.19044 32921 ft 505 kts 88°
2026-04-25 14:31 41.74956 64.28539 32921 ft 505 kts 88°
2026-04-25 14:31 41.75250 64.37987 32921 ft 505 kts 87°
2026-04-25 14:32 41.75536 64.47391 32921 ft 505 kts 87°
2026-04-25 14:32 41.75747 64.56886 32920 ft 505 kts 90°
2026-04-25 14:33 41.75287 64.66328 32918 ft 504 kts 98°
2026-04-25 14:33 41.74137 64.75702 32920 ft 503 kts 101°
2026-04-25 14:34 41.72901 64.84923 32922 ft 503 kts 101°
2026-04-25 14:34 41.71673 64.94155 32922 ft 501 kts 102°
2026-04-25 14:35 41.70442 65.03396 32922 ft 498 kts 102°
2026-04-25 14:35 41.69204 65.12626 32921 ft 497 kts 102°
2026-04-25 14:36 41.67975 65.21729 32921 ft 497 kts 102°
2026-04-25 14:36 41.66725 65.30949 32921 ft 497 kts 102°
2026-04-25 14:37 41.65484 65.40050 32921 ft 497 kts 102°
2026-04-25 14:37 41.64225 65.49236 32921 ft 497 kts 102°
2026-04-25 14:38 41.62971 65.58347 32921 ft 497 kts 102°
2026-04-25 14:38 41.61701 65.67517 32919 ft 497 kts 103°
2026-04-25 14:39 41.60429 65.76687 32921 ft 496 kts 103°
2026-04-25 14:39 41.59145 65.85823 32921 ft 496 kts 103°
2026-04-25 14:40 41.57850 65.94905 32921 ft 496 kts 103°
2026-04-25 14:40 41.56543 66.04041 32922 ft 496 kts 103°
2026-04-25 14:41 41.55233 66.13171 32940 ft 496 kts 103°
2026-04-25 14:41 41.53931 66.22187 32975 ft 496 kts 103°
2026-04-25 14:42 41.53058 66.28216 33004 ft 496 kts 103°
2026-04-25 14:42 41.51284 66.40383 33040 ft 495 kts 103°
2026-04-25 14:43 41.49960 66.49424 33052 ft 495 kts 103°
2026-04-25 14:43 41.48623 66.58478 33056 ft 495 kts 103°
2026-04-25 14:44 41.47303 66.67456 33057 ft 495 kts 103°
2026-04-25 14:44 41.45986 66.76542 33058 ft 495 kts 103°
2026-04-25 14:45 41.44657 66.85654 33059 ft 495 kts 103°
2026-04-25 14:45 41.43334 66.94651 33059 ft 495 kts 103°
2026-04-25 14:46 41.41992 67.03719 33058 ft 496 kts 103°
2026-04-25 14:46 41.40633 67.12833 33058 ft 498 kts 103°
2026-04-25 14:47 41.39500 67.20405 33058 ft 500 kts 103°
2026-04-25 14:47 41.37903 67.31039 32986 ft 498 kts 103°
2026-04-25 14:48 41.37225 67.35535 32540 ft 494 kts 103°
2026-04-25 14:48 41.36549 67.40009 31820 ft 493 kts 103°
2026-04-25 14:48 41.35864 67.44516 31087 ft 492 kts 103°
2026-04-25 14:48 41.35187 67.48961 30303 ft 492 kts 103°
2026-04-25 14:49 41.34505 67.53426 29449 ft 492 kts 103°
2026-04-25 14:49 41.33825 67.57861 28563 ft 494 kts 103°
2026-04-25 14:49 41.33134 67.62358 27638 ft 495 kts 103°
2026-04-25 14:49 41.32444 67.66841 26681 ft 496 kts 103°
2026-04-25 14:50 41.31762 67.71281 25698 ft 497 kts 103°
2026-04-25 14:50 41.31046 67.75925 24640 ft 498 kts 103°
2026-04-25 14:50 41.30353 67.80396 23580 ft 499 kts 103°
2026-04-25 14:50 41.29638 67.84980 22531 ft 498 kts 103°
2026-04-25 14:51 41.28962 67.89445 21695 ft 485 kts 102°
2026-04-25 14:51 41.28476 67.93878 20823 ft 483 kts 98°
2026-04-25 14:51 41.28227 67.98306 20110 ft 477 kts 94°
2026-04-25 14:51 41.28129 68.02705 19391 ft 471 kts 92°
2026-04-25 14:52 41.28061 68.07057 18649 ft 466 kts 92°
2026-04-25 14:52 41.27997 68.11343 17910 ft 460 kts 92°
2026-04-25 14:52 41.27930 68.15610 17260 ft 452 kts 92°
2026-04-25 14:52 41.27885 68.18336 17004 ft 433 kts 92°
2026-04-25 14:53 41.27798 68.23454 16119 ft 401 kts 92°
2026-04-25 14:53 41.27733 68.27058 15482 ft 381 kts 92°
2026-04-25 14:53 41.27668 68.30537 14931 ft 361 kts 92°
2026-04-25 14:53 41.27605 68.33800 14471 ft 342 kts 93°
2026-04-25 14:54 41.27544 68.36910 14110 ft 332 kts 93°
2026-04-25 14:54 41.27483 68.39938 13854 ft 325 kts 93°
2026-04-25 14:54 41.27422 68.42943 13489 ft 322 kts 93°
2026-04-25 14:54 41.27360 68.45926 13094 ft 320 kts 93°
2026-04-25 14:55 41.27297 68.48920 12700 ft 318 kts 93°
2026-04-25 14:55 41.27235 68.51845 12316 ft 316 kts 93°
2026-04-25 14:55 41.27174 68.54732 11937 ft 313 kts 93°
2026-04-25 14:55 41.27111 68.57657 11554 ft 311 kts 93°
2026-04-25 14:56 41.27050 68.60500 11186 ft 309 kts 93°
2026-04-25 14:56 41.26988 68.63357 10825 ft 306 kts 93°
2026-04-25 14:56 41.26925 68.66197 10450 ft 304 kts 94°
2026-04-25 14:56 41.26862 68.69022 10077 ft 301 kts 94°
2026-04-25 14:57 41.26800 68.71793 9704 ft 299 kts 94°
2026-04-25 14:57 41.26735 68.74577 9317 ft 297 kts 94°
2026-04-25 14:57 41.26671 68.77318 8932 ft 295 kts 94°
2026-04-25 14:57 41.26608 68.80048 8583 ft 292 kts 94°
2026-04-25 14:58 41.26543 68.82731 8213 ft 289 kts 94°
2026-04-25 14:58 41.26479 68.85421 7856 ft 283 kts 94°
2026-04-25 14:58 41.26280 68.87929 7585 ft 267 kts 107°
2026-04-25 14:58 41.25657 68.90178 7346 ft 250 kts 116°
2026-04-25 14:59 41.24923 68.92242 7068 ft 243 kts 118°
2026-04-25 14:59 41.24207 68.94205 6819 ft 229 kts 118°
2026-04-25 14:59 41.23524 68.96093 6409 ft 224 kts 117°
2026-04-25 14:59 41.22861 68.97954 5954 ft 221 kts 114°
2026-04-25 15:00 41.22572 68.99945 5521 ft 219 kts 88°
2026-04-25 15:00 41.22739 69.01904 5240 ft 209 kts 83°
2026-04-25 15:00 41.22954 69.03762 5043 ft 197 kts 83°
2026-04-25 15:00 41.23157 69.05537 4721 ft 190 kts 83°
2026-04-25 15:01 41.23342 69.07203 4434 ft 179 kts 83°
2026-04-25 15:01 41.23537 69.08795 4103 ft 169 kts 82°
2026-04-25 15:01 41.23719 69.10304 3746 ft 161 kts 82°
2026-04-25 15:01 41.23879 69.11715 3507 ft 146 kts 83°
2026-04-25 15:02 41.24025 69.13033 3288 ft 145 kts 91°
2026-04-25 15:02 41.24170 69.14374 3140 ft 146 kts 92°
2026-04-25 15:02 41.24315 69.15709 2947 ft 147 kts 90°
2026-04-25 15:02 41.24461 69.17057 2769 ft 147 kts 90°
2026-04-25 15:03 41.24607 69.18407 2581 ft 146 kts 90°
2026-04-25 15:03 41.24749 69.19721 2385 ft 144 kts 91°
2026-04-25 15:03 41.24897 69.21065 2180 ft 144 kts 92°
2026-04-25 15:03 41.25040 69.22382 1983 ft 144 kts 91°
2026-04-25 15:04 41.25183 69.23698 1787 ft 144 kts 92°
2026-04-25 15:04 41.25327 69.25014 1608 ft 144 kts 91°
2026-04-25 15:04 41.25475 69.26338 1446 ft 142 kts 92°
2026-04-25 15:04 41.25595 69.27577 1425 ft 114 kts 84°
2026-04-25 15:05 41.25645 69.28097 1425 ft 57 kts 78°
2026-04-25 15:05 41.25688 69.28427 1425 ft 22 kts 83°
2026-04-25 15:05 41.25714 69.28651 1425 ft 25 kts 82°
2026-04-25 15:06 41.25760 69.28930 1425 ft 4 kts 167°
2026-04-25 15:06 41.25738 69.28871 1425 ft 13 kts 258°
2026-04-25 15:06 41.25716 69.28687 1425 ft 25 kts 260°
2026-04-25 15:06 41.25686 69.28411 1425 ft 34 kts 261°
2026-04-25 15:07 41.25648 69.28108 1425 ft 29 kts 260°
2026-04-25 15:07 41.25617 69.27808 1425 ft 36 kts 261°
2026-04-25 15:07 41.25586 69.27470 1425 ft 36 kts 258°
2026-04-25 15:07 41.25521 69.27210 1425 ft 27 kts 231°
2026-04-25 15:08 41.25417 69.27035 1425 ft 14 kts 230°
2026-04-25 15:08 41.25383 69.26982 1425 ft 6 kts 230°
2026-04-25 15:08 41.25349 69.26925 1425 ft 9 kts 232°
2026-04-25 15:08 41.25303 69.26846 1425 ft 12 kts 231°
2026-04-25 15:09 41.25257 69.26733 1425 ft 15 kts 264°
2026-04-25 15:09 41.25256 69.26582 1425 ft 17 kts 269°
2026-04-25 15:09 41.25237 69.26376 1425 ft 4 kts 191°
2026-04-25 15:10 41.25200 69.26374 1425 ft 0 kts 181°